Погода в Москве

Хотите узнать прогноз погоды в Москве? Тогда Вам сюда: Погода в Москве

Поиск расширенной информации на нашем сайте:

Полезная информация:

Новости сайта



02.01.2020
Опубликован Долгосрочный прогноз погоды по городам России и ближнего зарубежья на январь 2020 года.
Карты: Прогноз на январь и февраль 2020 года, Сравнение прогнозируемой аномалии приземной температуры воздуха на январь 2020 года по разным моделям.




Погода в Москве - сегодня

Время (UTC), дата Ветер
(°,м/с) 
Видим.   Явления Облачность Т
(°С)
Тd
(°С)
f(%) Тe
(°С)
Pmin
(гПа)
dP
(гПа)
Po
(мм)
O2
(г/м3)
Тmin Tmax R s Состояние
почвы
15 02.07.20 тихо ()   10 км  в посл. час ливневой дождь  10/10 600 м кучево-дожд. 
[Cb calv]
+19.9 +16.5 81 +31  1011.6  -0.2  745  276      0.5     
18 02.07.20 тихо ()   1000 м  ливневой дождь  10/10 600 м кучево-дожд. 
[Cb calv]
+18.6 +17.9 96 +33  1011.9  0.3  745  277    +25.4     
21 02.07.20 тихо ()   н/о  дымка{ливн. осадки}  3/0 средняя, верхняя 
[Ac trans|Ci fib]
+17.4 +16.8 96 +30  1011.7  -0.3  745  278           
00 03.07.20 тихо ()   н/о  дымка{ливн. осадки}  1/1 1000 м 
[Sc]
+16.6 +16.2 97 +28  1011.5  -0.2  745  279           
03 03.07.20 тихо ()   4000 м  дымка  3/0 верхняя 
[Ci fib]
+18 +17.2 95 +31  1011.7  0.5  745  278  +16.1       
06 03.07.20 290 (З) 10 км    5/0 верхняя 
[Cc]
+21 +17.1 78 +34  1012.7  0.9  746  275  +16.1    0.3    влажная 
09 03.07.20 240 (ЮЗ) 10 км    8/0 средняя 
[Ac As]
+25.3 +16.3 57 +36  1013.2  0.7  746  272           
12 03.07.20 170 (Ю) 10 км    6/3 600 м средняя, верхняя 
[Cu hum|As trans|Cc]
+27.5 +16.4 51 +39  1012.7  -0.3  746  270           
15 03.07.20 тихо ()   4000 м  слаб. ливневой дождь  10/10 600 м кучево-дожд. 
[Cb cap]
+21.1 +16.3 74 +32  1013.4  0.3  746  276      0.5     
18 03.07.20 тихо ()   1000 м  ливневой дождь{гроза}  10/10 600 м кучево-дожд. 
[Cb cap]
+17.7 +17.2 97 +31  1013.8  0.3  746  279    +27.9  18     
21 03.07.20 тихо ()   н/о  дымка{ливн. осадки}  8/8 600 м 
[Sc]
+17.9 +17.5 98 +31  1013.2  -0.5  746  278           
00 04.07.20 тихо ()   н/о  дымка{ливн. осадки}  8/8 600 м 
[Sc]
+17.9 +17.5 98 +31  1013.3  -0.1  746  278           
03 04.07.20 тихо ()   4000 м  дымка  8/5 600 м средняя 
[Sc|Ac trans]
+18.4 +18.1 98 +33  1013.5  0.3  746  278  +17.5    20     
06 04.07.20 090 (В) 10 км    8/0 средняя, верхняя 
[Ac trans|Cc]
+23.3 +17.9 72 +38  1012.7  -0.5  746  273  +17.5      мокрая 
09 04.07.20 340 (С) 10 км    10/6 600 м средняя 
[Cu Sc|Ac lent]
+24.9 +17.3 63 +38  1012.5  0.1  746  272           
12 04.07.20 тихо ()   10 км  в посл. час ливневой дождь  9/8 600 м кучево-дожд., средняя 
[Cb calv|Ac trans]
+24.4 +19.4 74 +42  1012.3  -0.2  746  271           
15 04.07.20 250 (З) 10 км  {ливн. осадки}  10/4 600 м средняя, верхняя 
[Cu Sc|Ac trans|Ci fib]
+23.8 +17.5 68 +37  1011.6  -0.7  745  272      0.0     
18 04.07.20 тихо ()   10 км    8/3 600 м верхняя 
[Sc diur, vesp|Ci]
+21.1 +18 82 +36  1011.8  745  275    +25.8  0.0     
21 04.07.20 тихо ()   н/о  дымка  3/0 верхняя 
[Ci fib]
+18.8 +17.9 95 +33  1012.2  0.2  745  277           
00 05.07.20 тихо ()   н/о  дымка  8/0 средняя, верхняя 
[Ac trans|Ci fib]
+17.9 +17.4 97 +31  1012.5  0.2  746  278           
03 05.07.20 тихо ()   4000 м  дымка  8/0 верхняя 
[Cc]
+18.3 +17.7 96 +32  1012.4  746  277  +17.4         
06 05.07.20 тихо ()   10 км    10/0 верхняя 
[Cs]
+23.4 +15.3 60 +33  1011.9  745  273  +17.4        влажная 
09 05.07.20 тихо ()   4000 м  слаб. ливневой снег  10/8 600 м кучево-дожд., верхняя 
[Cb cap|Cs]
+22.9 +17 69 +35  1011.8  -0.1  745  273           
12 05.07.20 тихо ()   10 км  в посл. час ливневой дождь  9/8 600 м кучево-дожд., средняя 
[Cb cap|Ac trans]
+24.4 +17.2 64 +37  1010.9  -0.8  745  272           
15 05.07.20 тихо ()   10 км    9/6 1000 м средняя, верхняя 
[Cu Sc|Ac trans|Ci fib]
+25.5 +13.1 46 +31  1010.1  -0.8  744  272      0.6     
Время (UTC), дата Ветер
(°,м/с) 
Видим.   Явления Облачность Т
(°С)
Тd
(°С)
f(%) Тe
(°С)
Pmin
(гПа)
dP
(гПа)
Po
(мм)
O2
(г/м3)
Тmin Tmax R s Состояние
почвы

Для получения пояснительной информации подведите курсор к названию столбца.

ПОГОДА в Москве - архив

Всё, что Вы хотите узнать о погоде в Москве - удобно и подробно!

Выберите нужную дату (начиная с 1 января 2019* года) и нажмите кнопку "Найти".
Будут отображены архивные сводки погоды по пункту Москва, начиная с указанной даты.


Отображать данные в формате CSV (для использования в таблицах Excel)


Внимание! Наш архив погоды предназначен исключительно для личного некоммерческого использования в познавательных целях. Если Вам необходимы официальные справки о состоянии погоды (для производственных, юридических, коммерческих и т.п. целей), обращайтесь в органы Росгидромета.

*Примечание: данная дата относится к архиву по метеостанциям СССР (Россия, СНГ, Балтия).
Архив по метеостанциям Зарубежной Европы и Азии (кроме Китая) хранится 10 дней, по другим регионам земного шара (Китай, Африка, Америка, Австралия, Океания) - 1 день.

Москва - район местоположения метеостанции


Название, широта, долгота, высота метеостанции:
Москва (ВВЦ) 55.8°ш. 37.6°д. 156 м над ур. моря [Российская Федерация]

Дополнительная информация

В oтличие oт бoльшинства пoгoдных сайтoв мы публикуем пoдрoбную метеoинфoрмацию в детальнoм прoфессиoнальнoм фoрмате.

Характеристики температуры и влажнoсти вoздуха измеряются на высoте 2 м в тени вдали oт зданий и деревьев.
Скoрoсть ветра измеряется на высoте 10 м (на урoвне рoста челoвека скoрoсть ветра ниже в 1.5-2 раза). Если метеoстанция нахoдится в гoрoде или в лесу, тo скoрoсть ветра занижена на 2-4 м/с пo сравнению с oткрытым местoм. Скoрoсть ветра над акватoриями крупных рек и oзёр, а также на вершинах хoлмoв на 2-5 м/с выше, чем в oбычных услoвиях.
Атмoсфернoе давление в разных тoчках местнoсти мoжет значительнo oтличаться oт давления на метеoстанции, в зависимoсти oт услoвий рельефа (при пoдъёме на 10 м давление пoнижается примернo на 1 мм рт.ст.).